QFA3 YSCB-YSSY

Flight info

Callsign QFA3
Flight time 0h 33m
Altitude 15000
Route CB W423 CULIN Y59 RIVET
Aircraft A388/J-SADE2E3FGHIJ3J4J5M1RWXY/LB1D1

Departure

Time 2026-05-06 08:32
Airport Canberra Airport (YSCB)

Arrival

Time 2026-05-06 09:06
Airport Sydney Kingsford Smith International Airport (YSSY)
Time Latitude Longitude Altitude Speed Heading
2026-05-06 08:09 -35.30697 149.19165 1878 ft 0 kts 214°
2026-05-06 08:16 -35.30696 149.19166 1887 ft 1 kts 214°
2026-05-06 08:17 -35.30691 149.19170 1877 ft 1 kts 214°
2026-05-06 08:17 -35.30683 149.19176 1877 ft 2 kts 214°
2026-05-06 08:17 -35.30672 149.19183 1877 ft 2 kts 200°
2026-05-06 08:17 -35.30660 149.19184 1878 ft 2 kts 179°
2026-05-06 08:18 -35.30650 149.19182 1878 ft 0 kts 171°
2026-05-06 08:19 -35.30653 149.19183 1878 ft 2 kts 169°
2026-05-06 08:19 -35.30673 149.19191 1877 ft 0 kts 152°
2026-05-06 08:20 -35.30735 149.19226 1883 ft 14 kts 168°
2026-05-06 08:20 -35.30834 149.19239 1879 ft 17 kts 177°
2026-05-06 08:20 -35.30957 149.19241 1881 ft 20 kts 180°
2026-05-06 08:20 -35.31102 149.19240 1876 ft 21 kts 181°
2026-05-06 08:21 -35.31251 149.19237 1874 ft 24 kts 181°
2026-05-06 08:21 -35.31423 149.19235 1878 ft 26 kts 180°
2026-05-06 08:21 -35.31565 149.19237 1876 ft 19 kts 180°
2026-05-06 08:21 -35.31696 149.19236 1873 ft 19 kts 180°
2026-05-06 08:22 -35.31809 149.19236 1877 ft 10 kts 178°
2026-05-06 08:22 -35.31832 149.19237 1880 ft 0 kts 178°
2026-05-06 08:22 -35.31878 149.19239 1880 ft 19 kts 176°
2026-05-06 08:22 -35.31973 149.19274 1881 ft 5 kts 145°
2026-05-06 08:23 -35.31991 149.19298 1876 ft 1 kts 118°
2026-05-06 08:30 -35.32001 149.19343 1881 ft 10 kts 91°
2026-05-06 08:31 -35.31934 149.19425 1876 ft 15 kts 17°
2026-05-06 08:31 -35.31838 149.19441 1878 ft 0 kts
2026-05-06 08:31 -35.31670 149.19444 1878 ft 54 kts 360°
2026-05-06 08:32 -35.31087 149.19445 1883 ft 119 kts 359°
2026-05-06 08:32 -35.30136 149.19457 1905 ft 159 kts 356°
2026-05-06 08:32 -35.29070 149.19436 2318 ft 165 kts 355°
2026-05-06 08:32 -35.27940 149.19343 2682 ft 177 kts 356°
2026-05-06 08:33 -35.26688 149.19333 2958 ft 198 kts 358°
2026-05-06 08:33 -35.25399 149.19119 3433 ft 204 kts 338°
2026-05-06 08:33 -35.24110 149.18819 4079 ft 207 kts
2026-05-06 08:33 -35.22767 149.19194 4669 ft 215 kts 15°
2026-05-06 08:34 -35.21449 149.19845 5280 ft 219 kts 18°
2026-05-06 08:34 -35.18706 149.21199 6443 ft 229 kts 16°
2026-05-06 08:34 -35.17258 149.21820 7059 ft 230 kts 15°
2026-05-06 08:35 -35.15798 149.22420 7674 ft 233 kts 14°
2026-05-06 08:35 -35.14360 149.23000 8309 ft 236 kts 14°
2026-05-06 08:35 -35.12860 149.23599 8944 ft 238 kts 14°
2026-05-06 08:35 -35.11380 149.24187 9554 ft 242 kts 13°
2026-05-06 08:36 -35.09869 149.24787 10168 ft 245 kts 13°
2026-05-06 08:36 -35.08346 149.25393 10773 ft 246 kts 13°
2026-05-06 08:36 -35.06832 149.25995 11352 ft 248 kts 13°
2026-05-06 08:36 -35.05270 149.26616 11916 ft 251 kts 13°
2026-05-06 08:37 -35.03714 149.27234 12526 ft 253 kts 13°
2026-05-06 08:37 -35.02147 149.27857 13106 ft 255 kts 12°
2026-05-06 08:37 -35.00548 149.28492 13700 ft 258 kts 12°
2026-05-06 08:37 -34.98935 149.29132 14235 ft 261 kts 12°
2026-05-06 08:38 -34.97251 149.29799 14734 ft 264 kts 12°
2026-05-06 08:38 -34.95580 149.30460 15064 ft 271 kts 12°
2026-05-06 08:38 -34.93841 149.31142 15129 ft 291 kts 12°
2026-05-06 08:38 -34.91985 149.31869 15133 ft 312 kts 13°
2026-05-06 08:39 -34.89972 149.32662 15130 ft 328 kts 13°
2026-05-06 08:39 -34.87924 149.33476 15133 ft 332 kts 13°
2026-05-06 08:39 -34.85837 149.34310 15133 ft 333 kts 13°
2026-05-06 08:39 -34.83728 149.35149 15136 ft 339 kts 13°
2026-05-06 08:40 -34.81602 149.35991 15134 ft 344 kts 13°
2026-05-06 08:40 -34.79425 149.36852 15136 ft 345 kts 13°
2026-05-06 08:40 -34.77284 149.37699 15132 ft 348 kts 13°
2026-05-06 08:40 -34.75174 149.38794 15131 ft 363 kts 28°
2026-05-06 08:41 -34.73337 149.40726 15130 ft 374 kts 47°
2026-05-06 08:41 -34.72037 149.43263 15138 ft 378 kts 59°
2026-05-06 08:41 -34.70915 149.45925 15137 ft 377 kts 60°
2026-05-06 08:41 -34.69786 149.48594 15138 ft 377 kts 59°
2026-05-06 08:42 -34.68634 149.51286 15129 ft 377 kts 59°
2026-05-06 08:42 -34.67496 149.53916 15134 ft 377 kts 59°
2026-05-06 08:42 -34.66335 149.56582 15132 ft 377 kts 59°
2026-05-06 08:42 -34.65159 149.59272 15131 ft 377 kts 59°
2026-05-06 08:43 -34.63998 149.61924 15126 ft 377 kts 59°
2026-05-06 08:43 -34.62810 149.64637 15126 ft 377 kts 59°
2026-05-06 08:43 -34.61691 149.67190 15118 ft 377 kts 59°
2026-05-06 08:43 -34.60541 149.69811 15127 ft 376 kts 59°
2026-05-06 08:44 -34.59386 149.72443 15121 ft 376 kts 59°
2026-05-06 08:44 -34.58219 149.75100 15122 ft 376 kts 59°
2026-05-06 08:44 -34.57046 149.77770 15122 ft 376 kts 59°
2026-05-06 08:44 -34.55876 149.80428 15121 ft 376 kts 59°
2026-05-06 08:45 -34.54705 149.83088 15109 ft 376 kts 59°
2026-05-06 08:45 -34.53531 149.85752 15112 ft 376 kts 59°
2026-05-06 08:45 -34.52374 149.88377 15113 ft 376 kts 59°
2026-05-06 08:45 -34.51241 149.90944 15114 ft 376 kts 58°
2026-05-06 08:46 -34.50083 149.93567 15116 ft 377 kts 58°
2026-05-06 08:46 -34.48917 149.96206 15034 ft 374 kts 58°
2026-05-06 08:46 -34.47751 149.98841 14733 ft 373 kts 58°
2026-05-06 08:46 -34.46592 150.01460 14351 ft 371 kts 58°
2026-05-06 08:47 -34.45454 150.04030 13955 ft 369 kts 58°
2026-05-06 08:47 -34.44313 150.06603 13497 ft 366 kts 58°
2026-05-06 08:47 -34.43188 150.09138 13041 ft 364 kts 59°
2026-05-06 08:47 -34.42060 150.11680 12642 ft 361 kts 59°
2026-05-06 08:48 -34.40938 150.14204 12255 ft 359 kts 59°
2026-05-06 08:48 -34.39839 150.16677 12121 ft 356 kts 59°
2026-05-06 08:48 -34.38719 150.19194 12099 ft 356 kts 59°
2026-05-06 08:48 -34.37609 150.21685 12098 ft 358 kts 59°
2026-05-06 08:49 -34.36505 150.24163 12096 ft 358 kts 59°
2026-05-06 08:49 -34.35398 150.26644 12090 ft 358 kts 59°
2026-05-06 08:49 -34.34305 150.29094 11902 ft 356 kts 59°
2026-05-06 08:49 -34.33185 150.31602 11418 ft 359 kts 59°
2026-05-06 08:50 -34.32058 150.34120 10733 ft 366 kts 59°
2026-05-06 08:50 -34.30893 150.36718 10302 ft 379 kts 60°
2026-05-06 08:50 -34.29696 150.39391 10154 ft 382 kts 60°
2026-05-06 08:50 -34.28512 150.42040 9869 ft 381 kts 60°
2026-05-06 08:51 -34.27325 150.44693 9448 ft 378 kts 60°
2026-05-06 08:51 -34.26183 150.47251 8942 ft 373 kts 60°
2026-05-06 08:51 -34.25041 150.49809 8400 ft 369 kts 60°
2026-05-06 08:51 -34.23857 150.52457 7826 ft 366 kts 60°
2026-05-06 08:52 -34.22701 150.55042 7298 ft 363 kts 60°
2026-05-06 08:52 -34.21576 150.57553 6746 ft 360 kts 60°
2026-05-06 08:52 -34.20438 150.60092 6221 ft 356 kts 59°
2026-05-06 08:52 -34.19333 150.62552 5687 ft 352 kts 60°
2026-05-06 08:53 -34.18232 150.65001 5137 ft 349 kts 60°
2026-05-06 08:53 -34.17152 150.67405 4605 ft 346 kts 60°
2026-05-06 08:53 -34.16067 150.69821 4219 ft 341 kts 60°
2026-05-06 08:53 -34.14995 150.72201 4093 ft 340 kts 60°
2026-05-06 08:54 -34.13905 150.74620 4067 ft 339 kts 60°
2026-05-06 08:54 -34.12853 150.76958 4053 ft 323 kts 59°
2026-05-06 08:54 -34.11896 150.79087 4041 ft 300 kts 59°
2026-05-06 08:54 -34.10983 150.81115 3879 ft 283 kts 59°
2026-05-06 08:55 -34.10127 150.83014 3738 ft 267 kts 59°
2026-05-06 08:55 -34.09321 150.84802 3587 ft 251 kts 59°
2026-05-06 08:55 -34.08571 150.86471 3458 ft 240 kts 59°
2026-05-06 08:55 -34.07823 150.88137 3389 ft 231 kts 60°
2026-05-06 08:56 -34.07334 150.89912 3139 ft 233 kts 83°
2026-05-06 08:56 -34.07572 150.91709 3062 ft 236 kts 113°
2026-05-06 08:56 -34.08414 150.93290 3066 ft 239 kts 125°
2026-05-06 08:56 -34.09375 150.94788 3068 ft 232 kts 127°
2026-05-06 08:57 -34.10308 150.96198 3103 ft 215 kts 127°
2026-05-06 08:57 -34.11192 150.97535 3065 ft 217 kts 126°
2026-05-06 08:57 -34.12072 150.98914 3067 ft 219 kts 125°
2026-05-06 08:57 -34.12947 151.00293 3066 ft 221 kts 126°
2026-05-06 08:58 -34.13816 151.01683 3059 ft 218 kts 122°
2026-05-06 08:58 -34.14264 151.03226 3078 ft 213 kts 90°
2026-05-06 08:58 -34.14088 151.04759 3069 ft 184 kts 70°
2026-05-06 08:58 -34.13704 151.06072 3064 ft 165 kts 65°
2026-05-06 08:59 -34.13339 151.07281 3068 ft 163 kts 68°
2026-05-06 08:59 -34.13024 151.08519 3071 ft 162 kts 71°
2026-05-06 08:59 -34.12763 151.09768 3067 ft 163 kts 73°
2026-05-06 08:59 -34.12538 151.11038 3073 ft 163 kts 74°
2026-05-06 09:00 -34.12325 151.12325 3069 ft 162 kts 75°
2026-05-06 09:00 -34.12121 151.13589 3070 ft 164 kts 75°
2026-05-06 09:00 -34.11913 151.14872 3074 ft 162 kts 75°
2026-05-06 09:00 -34.11706 151.16160 3069 ft 164 kts 75°
2026-05-06 09:01 -34.11501 151.17416 3072 ft 164 kts 75°
2026-05-06 09:01 -34.11289 151.18700 3071 ft 163 kts 74°
2026-05-06 09:01 -34.10873 151.19887 3069 ft 160 kts 50°
2026-05-06 09:01 -34.10126 151.20720 3073 ft 157 kts 28°
2026-05-06 09:02 -34.09181 151.21156 3070 ft 152 kts
2026-05-06 09:02 -34.08195 151.21164 2955 ft 148 kts 348°
2026-05-06 09:02 -34.07246 151.20874 2710 ft 146 kts 345°
2026-05-06 09:02 -34.06336 151.20615 2471 ft 145 kts 346°
2026-05-06 09:03 -34.05415 151.20375 2228 ft 147 kts 348°
2026-05-06 09:03 -34.04451 151.20131 1999 ft 145 kts 348°
2026-05-06 09:03 -34.03492 151.19888 1687 ft 144 kts 349°
2026-05-06 09:03 -34.02570 151.19654 1426 ft 139 kts 349°
2026-05-06 09:04 -34.01663 151.19422 1317 ft 139 kts 349°
2026-05-06 09:04 -34.00796 151.19197 1278 ft 136 kts 349°
2026-05-06 09:04 -33.99899 151.18966 962 ft 141 kts 349°
2026-05-06 09:04 -33.98988 151.18727 664 ft 144 kts 349°
2026-05-06 09:05 -33.98034 151.18451 356 ft 147 kts 352°
2026-05-06 09:05 -33.97078 151.18241 174 ft 142 kts 345°
2026-05-06 09:05 -33.96197 151.18008 31 ft 123 kts 349°
2026-05-06 09:05 -33.95592 151.17853 28 ft 56 kts 347°
2026-05-06 09:06 -33.95453 151.17812 27 ft 14 kts 346°
2026-05-06 09:06 -33.95268 151.17739 28 ft 18 kts 299°
2026-05-06 09:06 -33.95263 151.17615 28 ft 16 kts 275°
2026-05-06 09:06 -33.95197 151.17551 26 ft 21 kts 340°
2026-05-06 09:07 -33.95068 151.17509 28 ft 20 kts 347°